Piarco, Trinidad And Tobago

5:55 PM AST on May 26, 2017 (GMT -0400)
Piarco International

Weather History for TTPP - March, 2014

Change the Weather History Date:

Saturday, March 22, 2014

  Actual Average Record
Temperature  
Mean Temperature 82 °F -  
Max Temperature 91 °F 88 °F 95 °F (2003)
Min Temperature 74 °F 72 °F 69 °F (2003)
Cooling Degree Days 18    
Growing Degree Days 32 (Base 50)    
Moisture  
Dew Point 71 °F    
Average Humidity 68    
Maximum Humidity 89    
Minimum Humidity 42    
Precipitation  
Precipitation 0.00 in 0.06 in - ()
Sea Level Pressure  
Sea Level Pressure 29.98 in    
Wind  
Wind Speed 6 mph ()    
Max Wind Speed 18 mph    
Max Gust Speed 28 mph    
Visibility 6.5 miles    
Events Rain    
Averages and records for this station are not official NWS values.
T = Trace of Precipitation, MM = Missing Value Source: Averaged Metar Reports

Daily Weather History Graph

Daily Weather History Graph

Search for Another Location

Airport or City:

Trip Planner

Search our weather history database for the weather conditions in past years. The results will help you decide how hot, cold, wet, or windy it might be!

Date:

Astronomy

Mar. 22, 2014 Rise Set
Actual Time 6:08 AM AST 6:16 PM AST
Civil Twilight 5:47 AM AST 6:37 PM AST
Nautical Twilight 5:22 AM AST 7:01 PM AST
Astronomical Twilight 4:58 AM AST 7:26 PM AST
Moon 11:38 PM AST (3/22) 10:38 AM AST (3/22)
Length of Visible Light 12h 49m
Length of Day
12h 07m
Waning Gibbous, 65% of the Moon is Illuminated
Mar 22
Waning Gibbous
Mar 23
Last Quarter
Mar 30
New
Apr 7
First Quarter
Apr 15
Full

Hourly Weather History & Observations

Time (AST) Temp. Heat Index Dew Point Humidity Pressure Visibility Wind Dir Wind Speed Gust Speed Precip Events Conditions
12:00 AM 77.0 °F - 71.6 °F 83% 29.98 in 6.2 mi Calm Calm - N/A   Partly Cloudy
1:00 AM 77.0 °F - 71.6 °F 83% 29.98 in 6.2 mi Calm Calm - N/A   Partly Cloudy
2:00 AM 76 °F - 71 °F 82% 29.96 in 9 mi Calm Calm - -   Widespread Dust
2:00 AM 77.0 °F - 71.6 °F 83% 29.95 in 6.2 mi Calm Calm - N/A   Scattered Clouds
3:00 AM 77.0 °F - 71.6 °F 83% 29.95 in 6.2 mi Calm Calm - N/A   Partly Cloudy
4:00 AM 75.2 °F - 71.6 °F 89% 29.95 in 6.2 mi Calm Calm - N/A   Mostly Cloudy
5:00 AM 75.2 °F - 71.6 °F 89% 29.95 in 6.2 mi Calm Calm - N/A   Scattered Clouds
6:00 AM 75.2 °F - 71.6 °F 89% 29.98 in 5.0 mi Calm Calm - N/A   Partly Cloudy
7:00 AM 77.0 °F - 71.6 °F 83% 29.98 in 5.0 mi Calm Calm - N/A   Partly Cloudy
8:00 AM 82 °F - 72 °F 65% 30.01 in 6 mi East 10.4 mph - - Rain Light Rain Showers
8:00 AM 82.4 °F 87.2 °F 71.6 °F 70% 30.01 in 6.2 mi East 10.4 mph - N/A   Partly Cloudy
9:00 AM 86.0 °F 90.4 °F 69.8 °F 58% 30.01 in 6.2 mi East 18.4 mph - N/A   Scattered Clouds
10:00 AM 86.0 °F 90.4 °F 69.8 °F 58% 30.01 in 6.2 mi East 17.3 mph - N/A   Scattered Clouds
11:00 AM 90 °F - 70 °F 42% 30.03 in 10 mi East 17.3 mph - -   Mostly Cloudy
11:00 AM 89.6 °F 94.7 °F 69.8 °F 52% 30.01 in 6.2 mi East 17.3 mph - N/A   Mostly Cloudy
12:00 PM 89.6 °F 94.7 °F 69.8 °F 52% 30.01 in 6.2 mi East 18.4 mph - N/A   Mostly Cloudy
1:00 PM 89.6 °F 93.4 °F 68.0 °F 49% 29.98 in 6.2 mi East 18.4 mph - N/A   Mostly Cloudy
2:00 PM 89 °F - 69 °F 42% 29.97 in 6 mi East 16.1 mph - -   Widespread Dust
2:00 PM 89.6 °F 94.7 °F 69.8 °F 52% 29.95 in 6.2 mi East 16.1 mph 27.6 mph N/A   Scattered Clouds
3:00 PM 87.8 °F 91.4 °F 68.0 °F 52% 29.95 in 6.2 mi ESE 16.1 mph - N/A   Scattered Clouds
4:00 PM 87.8 °F 92.6 °F 69.8 °F 55% 29.95 in 6.2 mi East 17.3 mph - N/A   Partly Cloudy
5:00 PM 85 °F - 70 °F 52% 29.97 in 4 mi ESE 10.4 mph - - Rain Light Rain Showers
5:00 PM 86.0 °F 90.4 °F 69.8 °F 58% 29.95 in 6.2 mi ESE 10.4 mph - N/A Rain Light Rain Showers
6:00 PM 82.4 °F 86.3 °F 69.8 °F 66% 29.98 in 6.2 mi East 13.8 mph - N/A   Scattered Clouds
7:00 PM 80.6 °F 83.9 °F 69.8 °F 70% 29.98 in 6.2 mi ESE 10.4 mph - N/A   Partly Cloudy
8:00 PM 79 °F - 71 °F 71% 30.00 in 9 mi East 5.8 mph - -   Widespread Dust
8:00 PM 78.8 °F - 71.6 °F 78% 29.98 in 6.2 mi East 5.8 mph - N/A   Partly Cloudy
9:00 PM 78.8 °F - 71.6 °F 78% 30.01 in 6.2 mi East 9.2 mph - N/A   Partly Cloudy
10:00 PM 78.8 °F - 71.6 °F 78% 30.01 in 6.2 mi East 6.9 mph - N/A   Scattered Clouds
11:00 PM 79 °F - 71 °F 72% 30.02 in 10 mi East 6.9 mph - -   Widespread Dust
11:00 PM 78.8 °F - 71.6 °F 78% 30.01 in 6.2 mi East 6.9 mph - N/A   Partly Cloudy